Location: Agua Amarilla
(10.0342°N, 66.8490°W)
Time: 11:34:01
(UTC+00:00)

Cosmos 2266 Rocket - Pass Details

Date: 26 June 2022
Orbit: 935 x 1007 km, 82.9° (Epoch: 17 August)

Event Time Altitude Azimuth Distance (km) Brightness Sun altitude
Rises 23:42:38 0° 3° (N) 3,582 7.3 -12.2°
Reaches altitude 10° 23:45:09 10° 7° (N) 2,643 6.5 -12.7°
Maximum altitude 23:51:03 59° 86° (E) 1,084 4.0 -14.0°
Drops below altitude 10° 23:57:03 10° 165° (SSE) 2,679 5.9 -15.4°
Enters shadow 23:57:28 - 165° (SSE) 2,834 6.0 -15.4°
